Location: Ohmer (historical)
(38.0096°N, 122.0227°W)
Time: 18:58:28
(UTC+00:00)

Cosmos 1980 Rocket - Pass Details

Date: 14 February 2026
Orbit: 828 x 849 km, 71.0° (Epoch: 10 March)

Event Time Altitude Azimuth Distance (km) Brightness Sun altitude
Exits shadow 14:27:16 - 267° (W) 2,666 4.2 -6.9°
Reaches altitude 10° 14:28:21 10° 275° (W) 2,431 3.9 -6.7°
Maximum altitude 14:31:23 15° 309° (NW) 2,118 3.8 -6.1°
Drops below altitude 10° 14:34:26 10° 342° (NNW) 2,440 4.3 -5.5°
Sets 14:38:05 0° 6° (N) 3,380 5.3 -4.8°
